Simultaneous Nadir Overpasses (SNOs) Predictions

Prediction of SNOs between GOES-17 and METOP-C Satellite Orbit:

Table of predicted SNOs for the next 14.0 days since TLE Epoch: 8/13/2022
Index Date Time (GOES-17) GOES-17 Lat,Lon METOP-C Lat,Lon Distance(km) Time Diff (sec)
1 08/13/2022 18:32:30 -0.03,-137.31 -0.46,-135.23 237.15 80
2 08/15/2022 06:48:50 0.03,-137.32 -0.53,-139.83 286.41 80
3 08/16/2022 06:30:50 0.03,-137.32 0.60,-134.84 282.96 80
4 08/17/2022 18:47:02 -0.03,-137.32 0.43,-139.40 236.98 80
5 08/18/2022 18:29:01 -0.03,-137.32 -0.65,-134.40 332.15 80
6 08/20/2022 06:45:20 0.03,-137.31 -0.35,-138.99 192.34 80
7 08/21/2022 06:27:21 0.03,-137.30 0.79,-134.01 376.21 80
8 08/22/2022 18:43:32 -0.03,-137.29 0.23,-138.57 145.09 80
9 08/23/2022 18:25:32 -0.03,-137.28 -0.85,-133.57 423.11 80
10 08/25/2022 06:41:51 0.03,-137.26 -0.15,-138.16 102.58 80
11 08/26/2022 06:21:11 0.03,-137.25 0.93,-133.16 465.23 80
